Satellite-Ground Cal/Val Region Overpasses Predictions

Prediction of Satellite NPP Overpassing Cal/Val Region: PacNW

Region Location: (Latitude: 10.00, Longitude: 139.50) to (Latitude: 22.70, Longitude: 165.60).

Table of predicted overpasses for the next 14.0 days since TLE Epoch: 12/18/2021
Interval Starting Time Starting Location Ending Time Ending Location
1 12/18/2021 02:46:58 ( 10.43, 158.05) 12/18/2021 02:50:27 ( 22.70, 155.13)
2 12/18/2021 15:18:44 ( 22.66, 155.37) 12/18/2021 15:22:19 ( 10.04, 152.37)
3 12/19/2021 02:27:48 ( 10.05, 162.90) 12/19/2021 02:31:23 ( 22.67, 159.90)
4 12/19/2021 14:59:40 ( 22.69, 160.14) 12/19/2021 15:03:16 ( 10.01, 157.12)
5 12/20/2021 02:11:16 ( 18.89, 165.59) 12/20/2021 02:12:20 ( 22.65, 164.67)
6 12/20/2021 03:50:15 ( 10.04, 142.29) 12/20/2021 03:53:35 ( 21.78, 139.51)
7 12/20/2021 14:40:38 ( 22.65, 164.89) 12/20/2021 14:44:13 ( 10.03, 161.89)
8 12/20/2021 16:22:08 ( 22.64, 139.51) 12/20/2021 16:22:08 ( 22.64, 139.51)
9 12/21/2021 03:31:11 ( 10.01, 147.06) 12/21/2021 03:34:47 ( 22.69, 144.04)
10 12/21/2021 16:03:04 ( 22.67, 144.28) 12/21/2021 16:06:39 ( 10.04, 141.28)
11 12/22/2021 03:12:09 ( 10.05, 151.81) 12/22/2021 03:15:44 ( 22.67, 148.81)
12 12/22/2021 15:44:01 ( 22.69, 149.05) 12/22/2021 15:47:37 ( 10.01, 146.03)
13 12/23/2021 02:53:06 ( 10.02, 156.58) 12/23/2021 02:56:41 ( 22.65, 153.58)
14 12/23/2021 15:24:58 ( 22.65, 153.80) 12/23/2021 15:28:33 ( 10.03, 150.80)
15 12/24/2021 02:34:03 ( 10.06, 161.33) 12/24/2021 02:37:38 ( 22.68, 158.33)
16 12/24/2021 15:05:55 ( 22.68, 158.57) 12/24/2021 15:09:30 ( 10.06, 155.57)
17 12/25/2021 02:15:37 ( 12.21, 165.60) 12/25/2021 02:18:35 ( 22.66, 163.10)
18 12/25/2021 03:56:30 ( 10.05, 140.72) 12/25/2021 03:57:59 ( 15.28, 139.51)
19 12/25/2021 14:46:51 ( 22.70, 163.33) 12/25/2021 14:50:27 ( 10.02, 160.32)
20 12/26/2021 03:37:26 ( 10.02, 145.49) 12/26/2021 03:41:01 ( 22.65, 142.49)
21 12/26/2021 14:30:46 ( 12.27, 165.60) 12/26/2021 14:31:24 ( 10.04, 165.09)
22 12/26/2021 16:09:19 ( 22.65, 142.71) 12/26/2021 16:12:54 ( 10.03, 139.71)
23 12/27/2021 03:18:23 ( 10.00, 150.25) 12/27/2021 03:21:59 ( 22.68, 147.24)
24 12/27/2021 15:50:15 ( 22.67, 147.47) 12/27/2021 15:53:50 ( 10.05, 144.48)
25 12/28/2021 02:59:20 ( 10.04, 155.00) 12/28/2021 03:02:55 ( 22.66, 152.01)
26 12/28/2021 15:31:12 ( 22.70, 152.24) 12/28/2021 15:34:48 ( 10.02, 149.23)
27 12/29/2021 02:40:17 ( 10.02, 159.77) 12/29/2021 02:43:53 ( 22.70, 156.76)
28 12/29/2021 15:12:10 ( 22.66, 156.99) 12/29/2021 15:15:45 ( 10.04, 153.99)
29 12/30/2021 02:21:14 ( 10.06, 164.52) 12/30/2021 02:24:49 ( 22.68, 161.52)
30 12/30/2021 14:53:06 ( 22.68, 161.76) 12/30/2021 14:56:42 ( 10.00, 158.75)
31 12/31/2021 03:43:41 ( 10.05, 143.91) 12/31/2021 03:47:16 ( 22.67, 140.91)
32 12/31/2021 14:35:08 ( 18.89, 165.59) 12/31/2021 14:37:39 ( 10.02, 163.51)
